Fremont, NE

4:19 PM CST on February 19, 2018 (GMT -0600)
Fremont Municipal

Weather History for KFET - December, 2013

Change the Weather History Date:

Wednesday, December 4, 2013

  Actual Average Record
Temperature  
Mean Temperature 24 °F -  
Max Temperature 33 °F 40 °F 62 °F (1979)
Min Temperature 16 °F 20 °F -2 °F (2005)
Degree Days  
Heating Degree Days 40    
Moisture  
Dew Point 18 °F    
Average Humidity 88    
Maximum Humidity 100    
Minimum Humidity 71    
Precipitation  
Precipitation 0.00 in - - ()
Sea Level Pressure  
Sea Level Pressure 29.78 in    
Wind  
Wind Speed 15 mph (NW)    
Max Wind Speed 26 mph    
Max Gust Speed 33 mph    
Visibility 8 miles    
Events      
Averages and records for this station are not official NWS values.
T = Trace of Precipitation, MM = Missing Value Source: NWS Daily Summary

Daily Weather History Graph

Daily Weather History Graph

Search for Another Location

Airport or City:

Trip Planner

Search our weather history database for the weather conditions in past years. The results will help you decide how hot, cold, wet, or windy it might be!

Date:

Astronomy

Dec. 04, 2013 Rise Set
Actual Time 7:36 AM CST 4:56 PM CST
Civil Twilight 7:05 AM CST 5:27 PM CST
Nautical Twilight 6:30 AM CST 6:02 PM CST
Astronomical Twilight 5:57 AM CST 6:35 PM CST
Moon 9:04 AM CST (12/4) 7:08 PM CST (12/4)
Length of Visible Light 10h 22m
Length of Day
9h 20m
Waxing Crescent, 4% of the Moon is Illuminated
Dec 4
Waxing Crescent
Dec 9
First Quarter
Dec 17
Full
Dec 25
Last Quarter
Jan 1
New

Hourly Weather History & Observations

Time (CST) Temp. Windchill Dew Point Humidity Pressure Visibility Wind Dir Wind Speed Gust Speed Precip Events Conditions
12:15 AM 33.6 °F 27.5 °F 32.0 °F 94% 29.68 in 7.0 mi NNW 6.9 mph - N/A   Overcast
12:35 AM 32.9 °F 25.3 °F 32.0 °F 96% 29.68 in 5.0 mi NNW 9.2 mph - N/A   Overcast
12:55 AM 32.2 °F 22.7 °F 32.0 °F 99% 29.68 in 4.0 mi NNW 12.7 mph - N/A   Overcast
1:15 AM 31.1 °F 20.5 °F 31.1 °F 100% 29.69 in 2.5 mi NW 15.0 mph - N/A   Overcast
1:35 AM 30.0 °F 19.5 °F 30.0 °F 100% 29.69 in 2.5 mi NW 13.8 mph - N/A   Overcast
1:55 AM 29.1 °F 18.4 °F 29.1 °F 100% 29.69 in 2.5 mi NW 13.8 mph 18.4 mph N/A   Overcast
2:15 AM 28.2 °F 17.7 °F 28.2 °F 100% 29.68 in 3.0 mi NNW 12.7 mph 17.3 mph N/A   Overcast
2:35 AM 27.9 °F 17.3 °F 27.9 °F 100% 29.69 in 4.0 mi NW 12.7 mph 19.6 mph N/A   Overcast
2:55 AM 27.5 °F 16.3 °F 27.5 °F 100% 29.68 in 4.0 mi NW 13.8 mph 17.3 mph N/A   Overcast
3:15 AM 27.0 °F 15.6 °F 27.0 °F 100% 29.67 in 4.0 mi NNW 13.8 mph - N/A   Overcast
3:35 AM 26.2 °F 14.7 °F 26.2 °F 100% 29.69 in 3.0 mi NW 13.8 mph - N/A   Overcast
3:55 AM 26.1 °F 14.5 °F 26.1 °F 100% 29.67 in 2.5 mi NW 13.8 mph 18.4 mph N/A   Overcast
4:15 AM 25.5 °F 13.3 °F 25.5 °F 100% 29.68 in 2.5 mi NW 15.0 mph - N/A   Overcast
4:35 AM 24.6 °F 10.1 °F 24.6 °F 100% 29.69 in 2.5 mi NW 20.7 mph - N/A   Overcast
4:55 AM 24.8 °F 11.5 °F 24.8 °F 100% 29.70 in 3.0 mi NW 17.3 mph - N/A   Overcast
5:15 AM 23.0 °F 8.3 °F 23.0 °F 100% 29.69 in 3.0 mi NW 19.6 mph 28.8 mph N/A   Overcast
5:35 AM 22.8 °F 9.9 °F 22.8 °F 100% 29.69 in 3.0 mi NW 15.0 mph - N/A   Overcast
5:55 AM 22.8 °F 10.9 °F 22.8 °F 100% 29.68 in 4.0 mi NW 12.7 mph 17.3 mph N/A   Overcast
6:15 AM 22.8 °F 10.4 °F 22.8 °F 100% 29.69 in 4.0 mi NW 13.8 mph 19.6 mph N/A   Overcast
6:35 AM 22.6 °F 11.9 °F 22.6 °F 100% 29.68 in 4.0 mi NNW 10.4 mph - N/A   Overcast
6:55 AM 22.6 °F 11.3 °F 22.6 °F 100% 29.67 in 3.0 mi NW 11.5 mph 18.4 mph N/A   Overcast
7:15 AM 22.3 °F 9.7 °F 22.3 °F 100% 29.67 in 4.0 mi NW 13.8 mph - N/A   Overcast
7:35 AM 22.1 °F 10.0 °F 22.1 °F 100% 29.67 in 7.0 mi NW 12.7 mph - N/A   Overcast
7:55 AM 22.1 °F 8.9 °F 22.1 °F 100% 29.68 in 10.0 mi NW 15.0 mph 18.4 mph N/A   Overcast
8:15 AM 22.1 °F 9.5 °F 22.1 °F 100% 29.68 in 10.0 mi NW 13.8 mph - N/A   Overcast
8:35 AM 21.7 °F 7.1 °F 20.8 °F 96% 29.69 in 10.0 mi NW 18.4 mph - N/A   Overcast
8:55 AM 21.7 °F 7.1 °F 20.3 °F 94% 29.71 in 10.0 mi WNW 18.4 mph - N/A   Mostly Cloudy
9:15 AM 21.9 °F 8.2 °F 20.7 °F 95% 29.71 in 10.0 mi WNW 16.1 mph - N/A   Mostly Cloudy
9:35 AM 21.2 °F 6.4 °F 19.4 °F 93% 29.72 in 10.0 mi WNW 18.4 mph 29.9 mph N/A   Scattered Clouds
9:55 AM 20.8 °F 6.8 °F 19.2 °F 93% 29.72 in 7.0 mi WNW 16.1 mph 24.2 mph N/A   Scattered Clouds
10:15 AM 20.5 °F 5.9 °F 18.5 °F 92% 29.74 in 7.0 mi WNW 17.3 mph 25.3 mph N/A   Clear
10:35 AM 20.7 °F 7.6 °F 19.2 °F 94% 29.73 in 10.0 mi WNW 13.8 mph 19.6 mph N/A   Scattered Clouds
10:55 AM 20.3 °F 5.7 °F 18.0 °F 91% 29.73 in 10.0 mi NW 17.3 mph - N/A   Mostly Cloudy
11:15 AM 20.5 °F 5.0 °F 18.3 °F 91% 29.72 in 10.0 mi WNW 19.6 mph 25.3 mph N/A   Mostly Cloudy
11:35 AM 20.1 °F 5.4 °F 18.3 °F 93% 29.72 in 10.0 mi NW 17.3 mph 26.5 mph N/A   Mostly Cloudy
11:55 AM 20.3 °F 6.1 °F 19.0 °F 95% 29.71 in 10.0 mi WNW 16.1 mph - N/A   Mostly Cloudy
12:15 PM 20.3 °F 4.8 °F 18.9 °F 94% 29.72 in 10.0 mi WNW 19.6 mph 26.5 mph N/A   Overcast
12:35 PM 20.8 °F 6.4 °F 18.5 °F 91% 29.71 in 10.0 mi NW 17.3 mph 25.3 mph N/A   Overcast
12:55 PM 20.3 °F 4.8 °F 18.3 °F 92% 29.71 in 10.0 mi WNW 19.6 mph 26.5 mph N/A   Mostly Cloudy
1:15 PM 20.3 °F 4.4 °F 17.2 °F 88% 29.72 in 10.0 mi WNW 20.7 mph 28.8 mph N/A   Mostly Cloudy
1:35 PM 20.3 °F 4.0 °F 16.7 °F 86% 29.73 in 10.0 mi WNW 21.9 mph 27.6 mph N/A   Mostly Cloudy
1:55 PM 20.3 °F 3.7 °F 16.7 °F 86% 29.73 in 10.0 mi WNW 23.0 mph 28.8 mph N/A   Mostly Cloudy
2:15 PM 20.3 °F 4.0 °F 16.3 °F 85% 29.73 in 10.0 mi WNW 21.9 mph - N/A   Mostly Cloudy
2:35 PM 20.7 °F 4.5 °F 16.5 °F 84% 29.73 in 10.0 mi WNW 21.9 mph - N/A   Mostly Cloudy
2:55 PM 20.8 °F 5.1 °F 16.5 °F 83% 29.74 in 10.0 mi WNW 20.7 mph 24.2 mph N/A   Mostly Cloudy
3:15 PM 20.7 °F 4.1 °F 15.6 °F 81% 29.77 in 10.0 mi West 23.0 mph 28.8 mph N/A   Mostly Cloudy
3:35 PM 20.3 °F 3.7 °F 15.1 °F 80% 29.77 in 10.0 mi WNW 23.0 mph 27.6 mph N/A   Mostly Cloudy
3:55 PM 20.3 °F 4.8 °F 14.9 °F 80% 29.78 in 10.0 mi WNW 19.6 mph 24.2 mph N/A   Scattered Clouds
4:15 PM 20.3 °F 4.4 °F 14.4 °F 78% 29.81 in 10.0 mi WNW 20.7 mph 26.5 mph N/A   Scattered Clouds
4:35 PM 20.1 °F 4.2 °F 13.6 °F 76% 29.81 in 10.0 mi WNW 20.7 mph - N/A   Scattered Clouds
4:55 PM 19.6 °F 3.9 °F 13.5 °F 77% 29.83 in 10.0 mi WNW 19.6 mph 24.2 mph N/A   Scattered Clouds
5:15 PM 18.5 °F 2.9 °F 12.6 °F 78% 29.84 in 10.0 mi WNW 18.4 mph 25.3 mph N/A   Scattered Clouds
5:35 PM 18.0 °F 2.6 °F 12.2 °F 78% 29.85 in 10.0 mi WNW 17.3 mph 24.2 mph N/A   Clear
5:55 PM 17.6 °F 1.3 °F 12.2 °F 79% 29.87 in 10.0 mi West 19.6 mph 24.2 mph N/A   Clear
6:15 PM 17.4 °F 1.5 °F 11.7 °F 78% 29.88 in 10.0 mi WNW 18.4 mph 25.3 mph N/A   Scattered Clouds
6:35 PM 17.1 °F 1.5 °F 11.1 °F 77% 29.87 in 10.0 mi WNW 17.3 mph 26.5 mph N/A   Scattered Clouds
6:55 PM 16.7 °F 0.5 °F 11.1 °F 79% 29.87 in 10.0 mi WNW 18.4 mph 23.0 mph N/A   Scattered Clouds
7:15 PM 16.9 °F 1.7 °F 11.3 °F 79% 29.89 in 10.0 mi WNW 16.1 mph 20.7 mph N/A   Scattered Clouds
7:35 PM 17.1 °F 2.5 °F 10.8 °F 76% 29.90 in 10.0 mi WNW 15.0 mph 25.3 mph N/A   Scattered Clouds
7:55 PM 17.1 °F 1.0 °F 10.6 °F 76% 29.92 in 10.0 mi NW 18.4 mph 27.6 mph N/A   Mostly Cloudy
8:15 PM 17.1 °F -0.6 °F 10.4 °F 75% 29.93 in 10.0 mi NW 23.0 mph 29.9 mph N/A   Mostly Cloudy
8:35 PM 16.9 °F 0.3 °F 10.4 °F 76% 29.95 in 10.0 mi NW 19.6 mph 26.5 mph N/A   Mostly Cloudy
8:55 PM 17.1 °F -0.3 °F 10.9 °F 77% 29.96 in 10.0 mi WNW 21.9 mph 25.3 mph N/A   Mostly Cloudy
9:15 PM 17.1 °F 1.5 °F 10.8 °F 76% 29.97 in 10.0 mi NW 17.3 mph 24.2 mph N/A   Mostly Cloudy
9:35 PM 17.2 °F 1.2 °F 10.2 °F 74% 30.01 in 10.0 mi WNW 18.4 mph 33.4 mph N/A   Mostly Cloudy
9:55 PM 17.2 °F -0.4 °F 10.4 °F 75% 30.00 in 10.0 mi NW 23.0 mph 26.5 mph N/A   Mostly Cloudy
10:15 PM 16.9 °F -1.9 °F 9.7 °F 73% 30.01 in 10.0 mi NW 26.5 mph 31.1 mph N/A   Scattered Clouds
10:35 PM 16.7 °F -2.2 °F 9.3 °F 73% 30.03 in 10.0 mi NW 26.5 mph 32.2 mph N/A   Scattered Clouds
10:55 PM 16.7 °F -0.7 °F 9.0 °F 72% 30.03 in 10.0 mi NW 21.9 mph 28.8 mph N/A   Scattered Clouds
11:15 PM 16.5 °F 0.3 °F 8.6 °F 71% 30.04 in 10.0 mi NW 18.4 mph 25.3 mph N/A   Clear
11:35 PM 16.0 °F 0.1 °F 8.6 °F 73% 30.05 in 10.0 mi NW 17.3 mph 24.2 mph N/A   Clear
11:55 PM 16.3 °F 1.0 °F 8.6 °F 72% 30.07 in 10.0 mi NW 16.1 mph - N/A   Clear